Location: *
(51.1248°S, 108.4023°W)
Time: 21:49:13
(UTC+00:00)

Nadezhda 1 Rocket - Pass Details

Date: 15 June 2021
Orbit: 942 x 1004 km, 83.0° (Epoch: 04 August)

Event Time Altitude Azimuth Distance (km) Brightness Sun altitude
Rises 13:46:53 0° 340° (NNW) 3,719 7.1 -13.1°
Reaches altitude 10° 13:49:27 10° 336° (NNW) 2,782 6.4 -12.7°
Maximum altitude 13:55:47 60° 256° (WSW) 1,153 4.1 -11.8°
Drops below altitude 10° 14:02:13 10° 175° (S) 2,816 6.2 -10.9°
Sets 14:04:49 0° 171° (S) 3,769 6.9 -10.5°
